Regional Weather Roundup
Issued by NWS

Home | Current Version | Previous Version | Text Only | Print | Product List | Glossary On
Versions: 1 2 3 4 5 6 7 8 9 10 11 12 13 14 15 16 17 18 19 20 21 22 23 24 25 26 27 28
000
ASUS42 KKEY 022010
RWRKEY

FLORIDA REGIONAL WEATHER ROUNDUP FOR THE FLORIDA KEYS
NATIONAL WEATHER SERVICE KEY WEST FLORIDA
400 PM EDT MON MAY 02 2016

...SOUTH FLORIDA AND THE KEYS...

CITY           SKY/WX    TMP DP  RH WIND       PRES   REMARKS
FORT MYERS     MOSUNNY   86  70  58 SW12      29.95F HX  90
SW REGIONAL AP PTSUNNY   87  71  58 SW16      29.96F HX  93
NAPLES         SUNNY     88  71  57 S14       29.95F HX  94
MIAMI          PTSUNNY   86  70  58 SE15      29.99F HX  90
WEST KENDALL   MOSUNNY   86  71  60 SE15      29.98F HX  91
HOMESTEAD      NOT AVBL
MARATHON       SUNNY     86  75  69 SE10G18   29.96F HX  95
BOCA CHICA NAS MOSUNNY   87  74  64 E14       29.96F HX  95
KEY WEST INTL  MOSUNNY   83  76  79 SE13      29.97F HX  91

...INTERNATIONAL WEATHER...

CITY           SKY/WX    TMP DP  RH WIND       PRES   REMARKS
NASSAU BAHAMAS PTSUNNY   84  73  70 E8        30.02F HX  91
CANCUN MEXICO  MOSUNNY   86  75  70 E15       29.89F HX  95
COZUMEL MEXICO PTSUNNY   84  75  74 SE10G22   29.88F HX  92

ADJACENT COASTAL WATERS...

STATION/POSITION TIME  SKY/WX   TEMP    WIND        PRES    WAVE
                                AIR SEA DIR/SP/G            HT/PER
                 (UTC)          (F)     (DEG/KT/KT) (MB)    (FT/S)
PULASKI SHOAL LI 2000            80     110/ 10/ 10 1014.2F
SAND KEY         1950            80     130/ 13/ 15 1015.0F
SOMBRERO KEY     NOT AVBL
LONG KEY         1900            82 82  110/ 12/ 15 1016.1F
MOLASSES REEF    2000            80 81  120/ 12/ 13 1015.6F
FOWEY ROCKS      NOT AVBL

$$




USA.gov is the U.S. government's official web portal to all federal, state and local government web resources and services.